[[{"header":{"parameterUnit":"m.s-1","parameterCategory":2,"la1":30.2991,"la2":30.254,"lo1":-89.0895,"lo2":-89.0444,"dy":0.0017,"dx":0.0017,"nx":28,"ny":28,"refTime":"2024-03-25T03:00:00:Z","depth":"0","parameterNumber":2,"parameterNumberName":"U-component_of_CURRENTS"},"data":[0,0,0,0,0,0,0,0,0,0,0,0,0,0,0,0,0,0,0,0,0,0,0,0,0,0,0,0,0,0,0,0,0,0,0,0,0,0,0,0,0,0,0,0,0,0,0,0,0,0,0,0,0,0,0,0,0,0,0.3996,0.3996,0,0.397,0.3969,0.3969,0.3946,0.3946,0.3946,0.3946,0.3882,0.388,0.3878,0,0,0,0,0,0,0,0,0,0,0,0,0,0.4011,0.4011,0.3996,0.3996,0.3996,0.397,0.3969,0.3968,0.3946,0.3946,0.3946,0.3946,0.3882,0.388,0.3878,0,0,0,0,0,0,0,0,0,0,0,0,0,0.3993,0.4011,0.3996,0.3985,0.3984,0.397,0.3969,0.3968,0.3946,0.3946,0.3946,0.3946,0.3883,0.388,0.3877,0.3857,0,0,0.3869,0.3868,0,0,0,0,0,0,0,0,0.3994,0.3992,0.3986,0.3986,0.3985,0.3965,0.3951,0.393,0.3946,0.3956,0.3946,0.3947,0.3908,0.3904,0.3893,0.3854,0.3851,0.3869,0.3867,0.3866,0.3865,0,0,0,0,0,0,0,0.3995,0.3993,0.3981,0.3987,0.3985,0.3976,0.3974,0.3947,0.3927,0.3955,0.3954,0.3958,0.3907,0.3896,0.3891,0.385,0.3869,0.3866,0.3865,0.3864,0.3797,0.3797,0,0,0,0,0,0,0.4008,0.3994,0.3982,0.3981,0.3995,0.3976,0.3973,0.3968,0.3929,0.3924,0.3958,0.3957,0.39,0.3894,0.3889,0.3869,0.3866,0.3863,0.3862,0.3797,0.3797,0.3797,0,0,0,0,0,0,0.4008,0.4006,0.3983,0.3991,0.3988,0.3976,0.397,0.3967,0.3963,0.3932,0.3926,0.3958,0.39,0.3893,0.386,0.3866,0.3862,0.386,0.3797,0.3797,0.3797,0.3824,0,0,0,0,0,0,0.4008,0.4006,0.4005,0.3991,0.3988,0.3984,0.397,0.3967,0.3966,0.3965,0.393,0.3924,0.39,0.3864,0.3857,0.3862,0.3857,0.3797,0.3797,0.3797,0.3823,0.3824,0.3826,0,0,0,0,0,0.4009,0.401,0.4005,0.4004,0.3987,0.3985,0.3982,0.3972,0.3967,0.3967,0.3934,0.3925,0.3859,0.3861,0.3853,0.3857,0.3797,0.3797,0.3797,0.3822,0.3824,0.3826,0,0,0,0,0,0,0.4018,0.4008,0.4002,0.4,0.3998,0.3983,0.3986,0.3977,0.3952,0.3948,0.3915,0.3906,0.3885,0.3864,0.3868,0.3838,0.383,0.3828,0.3852,0.3854,0.3855,0.3885,0.3855,0,0,0,0,0,0.402,0.4017,0.4009,0.401,0.4011,0.3999,0.3997,0.3989,0.3969,0.3959,0.3928,0.3898,0.3877,0.3859,0.3836,0.3811,0.3811,0.3811,0.3812,0.3814,0.3832,0.3806,0.3807,0.3796,0.3796,0.3796,0,0,0.4023,0.402,0.4017,0.4012,0.4009,0.4006,0.3997,0.3999,0.3993,0.3954,0.3927,0.3903,0.3872,0.3848,0.3837,0.383,0.3822,0.3813,0.3815,0.3833,0.3806,0.3807,0.3808,0.3796,0.3796,0.3796,0,0,0.4035,0.4028,0.4031,0.403,0.4031,0.4019,0.4023,0.4005,0.3997,0.3967,0.3945,0.3925,0.3874,0.3861,0.3848,0.3843,0.3834,0.3832,0.3856,0.383,0.3831,0.3832,0.3859,0.3862,0.3827,0.3827,0.3827,0,0.4045,0.4042,0.4034,0.4039,0.404,0.4027,0.4031,0.4018,0.3987,0.3978,0.3962,0.3906,0.3886,0.3869,0.3873,0.385,0.3844,0.3852,0.3833,0.3833,0.3833,0.3861,0.3864,0.3829,0.3828,0.3828,0.3828,0,0.4054,0.4056,0.4062,0.4057,0.4054,0.406,0.4045,0.4031,0.4012,0.3992,0.3969,0.3936,0.3904,0.3897,0.3885,0.388,0.3881,0.3842,0.3831,0.3836,0.3865,0.3868,0.383,0.383,0.383,0.3829,0,0,0.4077,0.407,0.4071,0.4078,0.4066,0.4068,0.4055,0.4043,0.4037,0.4001,0.3985,0.3965,0.3947,0.3933,0.3913,0.3902,0.3915,0.3877,0.3875,0.3913,0.389,0.4002,0.4016,0.3856,0.3856,0.3856,0.3919,0,0.4093,0.4104,0.4088,0.4098,0.4111,0.4088,0.4079,0.4063,0.4037,0.4011,0.3989,0.3968,0.3959,0.3947,0.3931,0.3906,0.3918,0.3904,0.3874,0.3875,0.3979,0.4021,0.3979,0.404,0.3922,0.3922,0.3922,0,0.4119,0.4121,0.4133,0.4133,0.4134,0.4127,0.4114,0.4101,0.4065,0.4045,0.4016,0.3988,0.3978,0.396,0.3942,0.3926,0.3928,0.3918,0.3918,0.4018,0.3992,0.4009,0.4049,0.3722,0.3926,0.3926,0.3926,0,0.4165,0.4161,0.4171,0.4171,0.4157,0.4155,0.4142,0.4114,0.4108,0.4069,0.4055,0.4018,0.4008,0.3978,0.3976,0.3945,0.3965,0.3907,0.4025,0.4034,0.3996,0.4003,0.3725,0.392,0.392,0.3919,0.3919,0,0.4207,0.4221,0.4193,0.4206,0.4214,0.4191,0.4191,0.4173,0.414,0.4135,0.4081,0.4076,0.4008,0.4005,0.3987,0.4041,0.3975,0.4066,0.4061,0.401,0.4016,0.373,0.356,0.3922,0.3921,0.3921,0.392,0,0.4274,0.4252,0.4275,0.4254,0.4245,0.4257,0.4232,0.4227,0.4196,0.4184,0.4176,0.4125,0.4135,0.4109,0.4082,0.4089,0.395,0.4145,0.4132,0.4127,0.395,0.3788,0.3495,0.3424,0.428,0.4283,0.4286,0,0.4321,0.4334,0.4319,0.4322,0.4315,0.4312,0.4305,0.4267,0.4257,0.4224,0.4221,0.4229,0.4241,0.4272,0.4294,0.4331,0.4038,0.4307,0.4257,0.3966,0.3776,0.3537,0.3479,0.4212,0.4214,0.4215,0.4216,0,0.4412,0.4395,0.4396,0.4401,0.4397,0.4374,0.4359,0.4357,0.431,0.4307,0.4302,0.4312,0.4378,0.4381,0.4454,0.4461,0.4023,0.4348,0.3994,0.3687,0.3453,0.3374,0.4169,0.423,0.4229,0.4228,0.4227,0.4226,0.4476,0.4492,0.4482,0.4481,0.4469,0.443,0.4398,0.4384,0.4372,0.4325,0.4358,0.4352,0.4348,0.4462,0.4415,0.4224,0.4167,0.4052,0.3882,0.367,0.3568,0.4462,0.455,0.455,0.4551,0.4551,0.4551,0,0.4551,0.4548,0.4559,0.454,0.4515,0.448,0.4422,0.4363,0.4342,0.4352,0.435,0.4283,0.4256,0.4169,0.4045,0.3757,0.3567,0.3494,0.3044,0.3025,0.3766,0.373,0.3705,0.3706,0.3706,0.3706,0.3707,0.3707,0.4593,0.4613,0.4599,0.4578,0.4542,0.4446,0.4385,0.431,0.4284,0.4169,0.4099,0.4026,0.3845,0.3467,0.3103,0.3022,0.2551,0.2446,0.2314,0.2683,0.2716,0.2747,0.2666,0.2419,0.2417,0.1548,0.1539,0.1533]},{"header":{"parameterUnit":"m.s-1","parameterCategory":2,"la1":30.2991,"la2":30.254,"lo1":-89.0895,"lo2":-89.0444,"dy":0.0017,"dx":0.0017,"nx":28,"ny":28,"refTime":"2024-03-25T03:00:00:Z","depth":"0","parameterNumber":3,"parameterNumberName":"V-component_of_CURRENTS"},"data":[0,0,0,0,0,0,0,0,0,0,0,0,0,0,0,0,0,0,0,0,0,0,0,0,0,0,0,0,0,0,0,0,0,0,0,0,0,0,0,0,0,0,0,0,0,0,0,0,0,0,0,0,0,0,0,0,0,0,-0.0864,-0.0865,0,-0.0989,-0.0991,-0.0992,-0.1091,-0.1091,-0.1092,-0.1093,-0.1219,-0.1221,-0.1224,0,0,0,0,0,0,0,0,0,0,0,0,0,-0.0797,-0.0797,-0.0864,-0.0865,-0.0866,-0.0989,-0.0991,-0.0993,-0.1091,-0.1092,-0.1092,-0.1093,-0.1218,-0.1221,-0.1224,0,0,0,0,0,0,0,0,0,0,0,0,0,-0.0867,-0.0798,-0.0863,-0.0928,-0.0934,-0.0988,-0.0991,-0.0993,-0.1091,-0.1092,-0.1093,-0.1093,-0.1217,-0.1221,-0.1225,-0.123,0,0,-0.1237,-0.1239,0,0,0,0,0,0,0,0,-0.0863,-0.087,-0.0917,-0.0923,-0.0931,-0.1023,-0.1014,-0.1071,-0.109,-0.1034,-0.1093,-0.1094,-0.115,-0.116,-0.1186,-0.1236,-0.1241,-0.1238,-0.124,-0.1242,-0.1243,0,0,0,0,0,0,0,-0.0858,-0.0866,-0.0917,-0.0918,-0.0927,-0.098,-0.0991,-0.1026,-0.1088,-0.1039,-0.1046,-0.1055,-0.1155,-0.1182,-0.1189,-0.1243,-0.1238,-0.1241,-0.1244,-0.1245,-0.1253,-0.125,0,0,0,0,0,0,-0.083,-0.086,-0.0913,-0.092,-0.0895,-0.098,-0.0992,-0.0995,-0.1088,-0.1102,-0.1054,-0.1059,-0.1174,-0.1185,-0.1194,-0.1167,-0.1242,-0.1246,-0.1248,-0.1255,-0.1252,-0.125,0,0,0,0,0,0,-0.0828,-0.0834,-0.0907,-0.0891,-0.0904,-0.0979,-0.0982,-0.0997,-0.102,-0.1098,-0.1113,-0.1061,-0.1175,-0.1188,-0.1211,-0.1174,-0.1248,-0.1251,-0.1258,-0.1254,-0.1251,-0.1137,0,0,0,0,0,0,-0.0826,-0.0832,-0.0819,-0.0889,-0.0904,-0.0917,-0.0981,-0.0998,-0.1023,-0.1031,-0.1109,-0.1123,-0.1177,-0.1205,-0.1215,-0.1181,-0.1255,-0.126,-0.1256,-0.1252,-0.1144,-0.113,-0.1119,0,0,0,0,0,-0.0823,-0.0795,-0.0818,-0.0824,-0.0885,-0.0915,-0.0927,-0.0987,-0.1021,-0.1016,-0.1072,-0.112,-0.1185,-0.1207,-0.122,-0.1186,-0.1262,-0.1257,-0.1252,-0.1149,-0.1133,-0.1119,0,0,0,0,0,0,-0.0752,-0.0804,-0.083,-0.0818,-0.0853,-0.093,-0.0927,-0.0974,-0.1016,-0.1022,-0.1105,-0.112,-0.1126,-0.1164,-0.1186,-0.1171,-0.1226,-0.1223,-0.1143,-0.1128,-0.1116,-0.1099,-0.1258,0,0,0,0,0,-0.0729,-0.0726,-0.0783,-0.077,-0.0782,-0.0853,-0.0872,-0.0912,-0.0961,-0.0983,-0.1039,-0.1084,-0.1114,-0.1128,-0.1164,-0.1159,-0.1176,-0.1139,-0.1126,-0.1116,-0.1108,-0.1098,-0.1084,-0.1233,-0.1233,-0.1233,0,0,-0.0695,-0.0724,-0.072,-0.0755,-0.0789,-0.0794,-0.0867,-0.0879,-0.0888,-0.0986,-0.1004,-0.1048,-0.1104,-0.1103,-0.1106,-0.1131,-0.1075,-0.1109,-0.11,-0.1098,-0.1091,-0.1076,-0.1064,-0.123,-0.123,-0.1231,0,0,-0.063,-0.065,-0.0631,-0.0654,-0.0692,-0.0735,-0.0731,-0.0796,-0.0825,-0.0847,-0.0913,-0.0928,-0.0985,-0.101,-0.1033,-0.0966,-0.1014,-0.0972,-0.0895,-0.0885,-0.0873,-0.0862,-0.0839,-0.0828,-0.0961,-0.0961,-0.096,0,-0.0589,-0.0582,-0.0626,-0.0617,-0.0631,-0.07,-0.0688,-0.072,-0.0784,-0.0797,-0.083,-0.089,-0.0937,-0.0932,-0.0913,-0.0938,-0.094,-0.0952,-0.0869,-0.0859,-0.0851,-0.083,-0.0819,-0.0955,-0.0955,-0.0956,-0.0956,0,-0.0521,-0.0517,-0.0502,-0.052,-0.0533,-0.0529,-0.058,-0.0591,-0.0636,-0.0678,-0.0686,-0.0745,-0.0781,-0.0785,-0.0838,-0.0793,-0.0815,-0.0859,-0.0909,-0.0829,-0.0812,-0.0802,-0.0946,-0.0948,-0.095,-0.0951,0,0,-0.0439,-0.0454,-0.0451,-0.0455,-0.0487,-0.0496,-0.0487,-0.0511,-0.0514,-0.055,-0.0548,-0.0584,-0.0621,-0.0646,-0.0696,-0.0685,-0.0623,-0.0739,-0.0742,-0.0718,-0.0586,-0.0554,-0.0542,-0.0657,-0.0655,-0.0654,-0.059,0,-0.0382,-0.0351,-0.0376,-0.0351,-0.0345,-0.0394,-0.0389,-0.0413,-0.0447,-0.0457,-0.0491,-0.0513,-0.0566,-0.0583,-0.0572,-0.0628,-0.0597,-0.0636,-0.0666,-0.0666,-0.065,-0.0529,-0.0362,-0.0287,-0.0581,-0.058,-0.0579,0,-0.0316,-0.0314,-0.0276,-0.0294,-0.0294,-0.0286,-0.03,-0.0306,-0.0326,-0.0351,-0.0356,-0.0406,-0.0396,-0.0458,-0.046,-0.0485,-0.0516,-0.0546,-0.0546,-0.0552,-0.0616,-0.0419,-0.0259,-0.0204,-0.0565,-0.0566,-0.0567,0,-0.0256,-0.0249,-0.0222,-0.0224,-0.0242,-0.0234,-0.0247,-0.0268,-0.0276,-0.0283,-0.0286,-0.0291,-0.0304,-0.0325,-0.0393,-0.0425,-0.0395,-0.0452,-0.0437,-0.0436,-0.0317,-0.0308,-0.0109,-0.0428,-0.0428,-0.0428,-0.0428,0,-0.0196,-0.0176,-0.0194,-0.0179,-0.0158,-0.0186,-0.0168,-0.0184,-0.0195,-0.0185,-0.0228,-0.0216,-0.0276,-0.0284,-0.0337,-0.0341,-0.0345,-0.0387,-0.0404,-0.027,-0.0258,-0.0229,-0.0292,-0.0426,-0.0426,-0.0427,-0.0427,0,-0.0129,-0.0135,-0.0113,-0.0125,-0.0128,-0.0113,-0.013,-0.0122,-0.0138,-0.012,-0.0119,-0.0147,-0.0145,-0.0195,-0.023,-0.0267,-0.0244,-0.0292,-0.0124,-0.0121,-0.0056,-0.0122,-0.0059,-0.0032,-0.0237,-0.0236,-0.0234,0,-0.009,-0.007,-0.0073,-0.0069,-0.0072,-0.0065,-0.0062,-0.0085,-0.0079,-0.0076,-0.0058,-0.0055,-0.0029,-0.0047,-0.008,-0.0101,-0.0165,-0.001,-0.004,0.0017,-0.0069,-0.0152,-0.0141,0.0175,0.018,0.0183,0.0186,0,-0.0038,-0.0038,-0.0032,-0.0024,-0.0017,-0.0006,-0.0004,0.0017,0.0002,0.0037,0.0082,0.0111,0.0119,0.0201,0.0153,0.0121,0.006,0.006,0.0096,0.0268,0.0216,0.0212,0.0051,0.0219,0.0215,0.0213,0.0211,0.021,-0.0016,-0.0006,-0.0013,-0.0007,0.0013,0.0041,0.0075,0.0101,0.015,0.0243,0.0237,0.0398,0.0474,0.0462,0.0389,0.0434,0.0261,0.0456,0.0372,0.0284,0.0322,0.023,0.0376,0.0374,0.0372,0.037,0.0369,0,-0.0033,-0.0031,-0.001,-0.0001,0.0032,0.0041,0.0099,0.016,0.026,0.0429,0.0525,0.0819,0.0909,0.0899,0.0918,0.0831,0.0732,0.0751,0.0726,0.0719,0.0675,0.0711,0.0966,0.0966,0.0966,0.0966,0.0966,0.0966,-0.0052,-0.0059,-0.0052,-0.0016,0.002,0.0092,0.0146,0.0274,0.0429,0.073,0.1,0.1166,0.1316,0.1226,0.1212,0.113,0.1008,0.0929,0.08,0.0838,0.0806,0.0775,0.0804,0.1074,0.1074,0.0969,0.0968,0.0967]}],[{"header":{"parameterUnit":"m.s-1","parameterCategory":2,"la1":30.2991,"la2":30.254,"lo1":-89.0895,"lo2":-89.0444,"dy":0.0017,"dx":0.0017,"nx":28,"ny":28,"refTime":"2024-03-25T03:00:00:Z","depth":"2","parameterNumber":2,"parameterNumberName":"U-component_of_CURRENTS"},"data":[0,0,0,0,0,0,0,0,0,0,0,0,0,0,0,0,0,0,0,0,0,0,0,0,0,0,0,0,0,0,0,0,0,0,0,0,0,0,0,0,0,0,0,0,0,0,0,0,0,0,0,0,0,0,0,0,0,0,0.1243,0.1243,0,0.1263,0.1263,0.1263,0.1243,0.1243,0.1242,0.1242,0.1396,0.14,0.1405,0,0,0,0,0,0,0,0,0,0,0,0,0,0.1227,0.1227,0.1243,0.1243,0.1244,0.1263,0.1263,0.1263,0.1243,0.1243,0.1242,0.1241,0.1394,0.14,0.1405,0,0,0,0,0,0,0,0,0,0,0,0,0,0.1237,0.1227,0.1243,0.1238,0.1238,0.1263,0.1263,0.1263,0.1243,0.1243,0.1242,0.1241,0.1392,0.1399,0.1406,0.1465,0,0,0.1427,0.143,0,0,0,0,0,0,0,0,0.1236,0.1237,0.1238,0.1239,0.1239,0.1252,0.1315,0.1338,0.1244,0.1239,0.1242,0.1241,0.1363,0.1372,0.1372,0.1472,0.1479,0.1428,0.1432,0.1435,0.1437,0,0,0,0,0,0,0,0.1236,0.1236,0.1248,0.1239,0.1239,0.125,0.1249,0.1318,0.1305,0.1239,0.1238,0.1245,0.1363,0.1365,0.1376,0.1481,0.1427,0.1434,0.1438,0.1441,0.1758,0.1762,0,0,0,0,0,0,0.1237,0.1236,0.1248,0.1249,0.1239,0.1251,0.125,0.1247,0.1302,0.1309,0.1246,0.1244,0.1353,0.1368,0.1381,0.1566,0.1435,0.1441,0.1445,0.1753,0.1759,0.1763,0,0,0,0,0,0,0.1237,0.1238,0.1247,0.1246,0.1248,0.1252,0.1248,0.1247,0.1274,0.1306,0.1315,0.1276,0.1353,0.1372,0.148,0.1568,0.1444,0.1451,0.1748,0.1755,0.1761,0.1866,0,0,0,0,0,0,0.1236,0.1237,0.1267,0.1245,0.1248,0.1286,0.1249,0.1249,0.1279,0.1278,0.1335,0.1346,0.1354,0.1469,0.1486,0.1575,0.1456,0.1743,0.1751,0.1759,0.1857,0.1875,0.1891,0,0,0,0,0,0.1235,0.1289,0.1268,0.1272,0.1278,0.1289,0.1292,0.1289,0.1282,0.1308,0.1354,0.1346,0.1533,0.1478,0.1497,0.159,0.1739,0.1749,0.1758,0.185,0.1872,0.189,0,0,0,0,0,0,0.1329,0.1291,0.1268,0.1315,0.1307,0.1287,0.1339,0.1313,0.1365,0.1386,0.1397,0.1414,0.1546,0.1558,0.1497,0.1708,0.1638,0.1652,0.1701,0.1722,0.1738,0.172,0.1462,0,0,0,0,0,0.1353,0.1364,0.1332,0.1373,0.1383,0.1362,0.1379,0.1362,0.1389,0.1409,0.1449,0.1515,0.1598,0.1647,0.1716,0.183,0.1824,0.1906,0.1923,0.1936,0.1937,0.1999,0.202,0.1795,0.1795,0.1795,0,0,0.1418,0.1386,0.1407,0.1392,0.1399,0.1416,0.1372,0.141,0.1438,0.1427,0.1527,0.1582,0.1644,0.1769,0.183,0.1791,0.2003,0.1949,0.196,0.1953,0.2011,0.2032,0.2051,0.1801,0.18,0.1799,0,0,0.1508,0.1512,0.1536,0.1527,0.1521,0.1504,0.1518,0.1517,0.1544,0.1628,0.1642,0.1741,0.1858,0.1912,0.1956,0.2112,0.2092,0.2153,0.2223,0.2284,0.2302,0.2317,0.2346,0.2363,0.2157,0.2158,0.2158,0,0.1603,0.1587,0.1557,0.1562,0.1584,0.1544,0.1585,0.1602,0.1636,0.1686,0.1684,0.1873,0.1925,0.2068,0.2124,0.215,0.2165,0.2135,0.2302,0.2317,0.2331,0.2356,0.2374,0.2164,0.2163,0.2162,0.2162,0,0.1654,0.1675,0.1707,0.1681,0.1704,0.1744,0.1741,0.1785,0.1817,0.183,0.1986,0.2055,0.2161,0.2209,0.2219,0.2365,0.2338,0.2314,0.2238,0.236,0.2379,0.2395,0.2173,0.2171,0.2169,0.2167,0,0,0.1815,0.1757,0.1776,0.1766,0.1773,0.1783,0.1867,0.1919,0.1971,0.2046,0.2147,0.23,0.2326,0.2378,0.2414,0.2466,0.2588,0.2441,0.2441,0.2445,0.2709,0.2583,0.2587,0.2593,0.2597,0.2599,0.2684,0,0.1885,0.1882,0.1861,0.1912,0.192,0.1931,0.1998,0.2042,0.21,0.2186,0.2278,0.2395,0.2394,0.2468,0.2528,0.2574,0.2635,0.2566,0.2611,0.2612,0.2465,0.2604,0.2334,0.2377,0.2699,0.2702,0.2704,0,0.1932,0.1917,0.1965,0.1973,0.1994,0.2034,0.2123,0.2177,0.2279,0.234,0.2456,0.2509,0.2642,0.2609,0.2741,0.2699,0.2726,0.2738,0.2741,0.2591,0.2515,0.231,0.2394,0.273,0.2728,0.2726,0.2724,0,0.1972,0.1996,0.2026,0.2033,0.205,0.2115,0.2152,0.2241,0.2301,0.2444,0.2501,0.2647,0.2725,0.2796,0.2844,0.2811,0.2947,0.2898,0.2807,0.2797,0.2557,0.252,0.2995,0.2995,0.2995,0.2995,0.2995,0,0.2015,0.2047,0.2042,0.2058,0.2117,0.2145,0.2247,0.2298,0.2408,0.2475,0.2585,0.266,0.2776,0.2858,0.2892,0.2902,0.2998,0.2843,0.2826,0.2588,0.2554,0.2841,0.2822,0.2998,0.2997,0.2997,0.2996,0,0.2038,0.2038,0.2058,0.2102,0.2123,0.2168,0.2261,0.2311,0.2424,0.2516,0.2573,0.2702,0.2824,0.2911,0.3022,0.294,0.2979,0.296,0.2659,0.2603,0.277,0.2757,0.2859,0.2855,0.2852,0.285,0.2848,0,0.2047,0.2041,0.2075,0.2084,0.2114,0.2181,0.2216,0.2318,0.2364,0.252,0.2549,0.2717,0.2786,0.289,0.2864,0.2902,0.299,0.2589,0.2471,0.2791,0.2765,0.2755,0.2746,0.2205,0.2198,0.2192,0.2188,0,0.204,0.2048,0.2055,0.2068,0.21,0.2135,0.2197,0.2232,0.2345,0.242,0.2536,0.2617,0.2711,0.2593,0.2597,0.2585,0.2558,0.2466,0.292,0.2269,0.2178,0.2151,0.2163,0.2136,0.2141,0.2145,0.2148,0.215,0.2042,0.2025,0.2017,0.2016,0.2058,0.2086,0.2103,0.2158,0.2224,0.223,0.2397,0.2338,0.2298,0.2154,0.2148,0.2137,0.2322,0.2123,0.214,0.2164,0.206,0.1968,0.1866,0.1869,0.1872,0.1875,0.1877,0,0.1988,0.197,0.1956,0.1953,0.1955,0.2042,0.2072,0.2037,0.2074,0.2005,0.2066,0.172,0.1641,0.1675,0.1555,0.1547,0.1565,0.1487,0.1445,0.1496,0.1542,0.1406,0.1039,0.1037,0.1035,0.1033,0,0,0.1962,0.1877,0.1828,0.1807,0.1879,0.1906,0.1933,0.1841,0.1769,0.1524,0.1353,0.1422,0.1479,0.1137,0.1167,0.1077,0.1294,0.1055,0.1719,0.1715,0.1758,0.1891,0.1738,0,0,0,0,0]},{"header":{"parameterUnit":"m.s-1","parameterCategory":2,"la1":30.2991,"la2":30.254,"lo1":-89.0895,"lo2":-89.0444,"dy":0.0017,"dx":0.0017,"nx":28,"ny":28,"refTime":"2024-03-25T03:00:00:Z","depth":"2","parameterNumber":3,"parameterNumberName":"V-component_of_CURRENTS"},"data":[0,0,0,0,0,0,0,0,0,0,0,0,0,0,0,0,0,0,0,0,0,0,0,0,0,0,0,0,0,0,0,0,0,0,0,0,0,0,0,0,0,0,0,0,0,0,0,0,0,0,0,0,0,0,0,0,0,0,0.099,0.099,0,0.0964,0.0963,0.0963,0.0907,0.0906,0.0905,0.0905,0.0823,0.0821,0.082,0,0,0,0,0,0,0,0,0,0,0,0,0,0.0915,0.0917,0.0989,0.099,0.099,0.0964,0.0963,0.0963,0.0907,0.0906,0.0905,0.0904,0.0823,0.0822,0.082,0,0,0,0,0,0,0,0,0,0,0,0,0,0.092,0.0917,0.0989,0.0962,0.096,0.0964,0.0963,0.0962,0.0907,0.0906,0.0905,0.0904,0.0824,0.0822,0.082,0.0828,0,0,0.0813,0.0812,0,0,0,0,0,0,0,0,0.092,0.0923,0.0966,0.0964,0.0961,0.0941,0.0907,0.0916,0.0907,0.0922,0.0905,0.0903,0.0861,0.0856,0.0848,0.0825,0.0821,0.0813,0.0811,0.081,0.081,0,0,0,0,0,0,0,0.092,0.0923,0.0975,0.0966,0.0963,0.0925,0.0925,0.0908,0.0894,0.0921,0.0918,0.0922,0.0858,0.085,0.0846,0.082,0.0813,0.0811,0.0809,0.0808,0.0822,0.0824,0,0,0,0,0,0,0.0938,0.0924,0.0976,0.0975,0.0942,0.0928,0.0928,0.0945,0.0895,0.0888,0.0923,0.092,0.0855,0.0848,0.0842,0.0856,0.081,0.0808,0.0807,0.0821,0.0823,0.0825,0,0,0,0,0,0,0.0936,0.0943,0.0977,0.095,0.0953,0.0932,0.0951,0.0945,0.0933,0.0898,0.0889,0.0917,0.0853,0.0846,0.0842,0.0852,0.0807,0.0805,0.0819,0.0821,0.0824,0.0879,0,0,0,0,0,0,0.0934,0.0943,0.0952,0.0953,0.0955,0.0982,0.0953,0.0946,0.094,0.0934,0.089,0.0881,0.0852,0.0846,0.084,0.0848,0.0804,0.0817,0.082,0.0823,0.0875,0.0883,0.089,0,0,0,0,0,0.0932,0.0952,0.0953,0.0958,0.0972,0.0983,0.098,0.0957,0.094,0.094,0.0922,0.0882,0.0862,0.0846,0.0839,0.0846,0.0815,0.0819,0.0823,0.0872,0.0881,0.089,0,0,0,0,0,0,0.0912,0.0949,0.0949,0.0976,0.0981,0.0975,0.0971,0.0962,0.0947,0.0941,0.0902,0.0894,0.0897,0.0872,0.0856,0.0864,0.0833,0.0835,0.0873,0.0881,0.0889,0.0905,0.0802,0,0,0,0,0,0.0919,0.0947,0.0966,0.0984,0.0991,0.0983,0.0981,0.0974,0.0967,0.0958,0.0926,0.0908,0.091,0.0896,0.0887,0.0886,0.0864,0.0889,0.0897,0.0903,0.0915,0.0906,0.0913,0.0837,0.0837,0.0837,0,0,0.0913,0.0938,0.0951,0.0982,0.0981,0.1004,0.0977,0.0986,0.1002,0.0953,0.0949,0.0933,0.092,0.0925,0.0923,0.09,0.0912,0.0908,0.0913,0.0922,0.091,0.0917,0.0923,0.084,0.0839,0.0839,0,0,0.0919,0.0943,0.0967,0.0984,0.1004,0.1012,0.102,0.1018,0.1012,0.1017,0.0999,0.1003,0.0969,0.0978,0.0978,0.1027,0.096,0.1006,0.1043,0.1034,0.1039,0.1044,0.1015,0.1017,0.1,0.1,0.1,0,0.0901,0.0955,0.097,0.1,0.1023,0.1022,0.1054,0.1056,0.105,0.1057,0.1022,0.1022,0.1007,0.1044,0.1056,0.1044,0.1008,0.1005,0.1042,0.1046,0.105,0.1019,0.102,0.1003,0.1003,0.1002,0.1002,0,0.0939,0.0974,0.099,0.1041,0.1062,0.1092,0.1114,0.1125,0.1116,0.1113,0.1131,0.1113,0.1109,0.1108,0.1091,0.1118,0.1073,0.1057,0.1014,0.1061,0.1025,0.1025,0.1008,0.1006,0.1006,0.1005,0,0,0.0925,0.1001,0.1008,0.1042,0.1096,0.1119,0.1162,0.1204,0.1229,0.1209,0.123,0.124,0.1208,0.1209,0.1187,0.1181,0.1175,0.112,0.1117,0.1082,0.1122,0.112,0.1119,0.1142,0.1143,0.1144,0.1082,0,0.0949,0.1019,0.1055,0.112,0.1164,0.1195,0.1238,0.1272,0.1276,0.1289,0.1288,0.1284,0.1252,0.1234,0.1232,0.1193,0.1179,0.1192,0.1091,0.1088,0.1073,0.1122,0.1101,0.1047,0.1082,0.1082,0.1082,0,0.0981,0.1037,0.1104,0.1186,0.1206,0.1236,0.1314,0.1347,0.138,0.1373,0.1372,0.1344,0.1347,0.1299,0.126,0.1255,0.1195,0.1161,0.1157,0.1139,0.1088,0.101,0.1045,0.1081,0.1081,0.1081,0.1081,0,0.0981,0.1068,0.1129,0.1158,0.1248,0.1277,0.1314,0.1363,0.1394,0.1402,0.1395,0.1398,0.136,0.1324,0.1245,0.1234,0.1186,0.1165,0.1114,0.1111,0.1071,0.1065,0.1138,0.1138,0.1138,0.1139,0.1139,0,0.101,0.1058,0.1129,0.1163,0.1244,0.1284,0.1346,0.1378,0.1413,0.1441,0.1413,0.1422,0.1353,0.1313,0.126,0.1189,0.1192,0.1136,0.1107,0.109,0.1086,0.11,0.1097,0.1136,0.1137,0.1137,0.1138,0,0.1009,0.1052,0.1125,0.1213,0.1241,0.1289,0.1357,0.1394,0.1409,0.1439,0.1428,0.1414,0.136,0.1299,0.1226,0.1187,0.1139,0.1105,0.1083,0.1055,0.1063,0.1063,0.1057,0.1056,0.1056,0.1056,0.1056,0,0.1024,0.106,0.1147,0.1189,0.1226,0.1295,0.1341,0.1386,0.142,0.1445,0.1458,0.1403,0.1421,0.1324,0.1223,0.114,0.1116,0.1043,0.1052,0.1088,0.106,0.1061,0.1061,0.1004,0.1003,0.1003,0.1003,0,0.1052,0.1062,0.1113,0.121,0.1258,0.1327,0.1382,0.1425,0.1469,0.1517,0.1579,0.1601,0.147,0.1382,0.1218,0.1164,0.1068,0.1032,0.1072,0.1042,0.1037,0.1011,0.1013,0.0998,0.0999,0.0999,0.0999,0.0999,0.1046,0.1085,0.1138,0.1242,0.129,0.1357,0.1417,0.15,0.1599,0.1708,0.1708,0.1733,0.1555,0.1375,0.1189,0.0984,0.1066,0.0996,0.0997,0.0999,0.1019,0.1016,0.0974,0.0974,0.0974,0.0975,0.0975,0,0.1046,0.1091,0.1177,0.1264,0.132,0.1336,0.1451,0.1552,0.1703,0.1789,0.1903,0.1712,0.1582,0.1332,0.1034,0.0906,0.088,0.0824,0.0811,0.082,0.0828,0.0836,0.0743,0.0741,0.0739,0.0737,0,0,0.1039,0.1116,0.1189,0.1295,0.1322,0.1397,0.1465,0.1665,0.1786,0.1913,0.1906,0.1978,0.1645,0.1361,0.1134,0.0917,0.0903,0.0879,0.11,0.1125,0.1132,0.0978,0.1009,0,0,0,0,0]}],[{"header":{"parameterUnit":"m.s-1","parameterCategory":2,"la1":30.2991,"la2":30.254,"lo1":-89.0895,"lo2":-89.0444,"dy":0.0017,"dx":0.0017,"nx":28,"ny":28,"refTime":"2024-03-25T03:00:00:Z","depth":"4","parameterNumber":2,"parameterNumberName":"U-component_of_CURRENTS"},"data":[0,0,0,0,0,0,0,0,0,0,0,0,0,0,0,0,0,0,0,0,0,0,0,0,0,0,0,0,0,0,0,0,0,0,0,0,0,0,0,0,0,0,0,0,0,0,0,0,0,0,0,0,0,0,0,0,0,0,0.0352,0.0353,0,0.039,0.0391,0.0391,0.0419,0.0419,0.0419,0.0419,0.0458,0.0458,0.0459,0,0,0,0,0,0,0,0,0,0,0,0,0,0.0294,0.0295,0.0352,0.0353,0.0353,0.039,0.0391,0.0392,0.0419,0.0419,0.0419,0.0419,0.0457,0.0458,0.0459,0,0,0,0,0,0,0,0,0,0,0,0,0,0.0325,0.0295,0.0352,0.0371,0.0373,0.039,0.0391,0.0392,0.0419,0.0419,0.0419,0.0419,0.0457,0.0458,0.0459,0.0462,0,0,0.0463,0.0464,0,0,0,0,0,0,0,0,0.0323,0.0327,0.0368,0.0369,0.0372,0.04,0.0384,0.0415,0.0419,0.0402,0.0419,0.0419,0.0438,0.044,0.0448,0.0464,0.0466,0.0463,0.0464,0.0465,0.0465,0,0,0,0,0,0,0,0.0321,0.0326,0.0368,0.0368,0.037,0.0374,0.0379,0.039,0.0418,0.0403,0.0405,0.0408,0.0439,0.0447,0.0449,0.0466,0.0463,0.0465,0.0465,0.0466,0.0559,0.0561,0,0,0,0,0,0,0.0316,0.0324,0.0367,0.0369,0.0347,0.0375,0.038,0.0391,0.0418,0.0422,0.0408,0.041,0.0444,0.0447,0.045,0.0506,0.0465,0.0466,0.0467,0.0558,0.056,0.0561,0,0,0,0,0,0,0.0314,0.0319,0.0365,0.0346,0.0352,0.0376,0.0387,0.0391,0.0412,0.0422,0.0426,0.0426,0.0445,0.0449,0.0473,0.0506,0.0467,0.0468,0.0556,0.0558,0.0561,0.0585,0,0,0,0,0,0,0.0313,0.0319,0.0329,0.0346,0.0353,0.0387,0.0387,0.0392,0.0412,0.0415,0.0438,0.0441,0.0445,0.0471,0.0474,0.0507,0.0469,0.0553,0.0557,0.056,0.0582,0.0588,0.0593,0,0,0,0,0,0.031,0.0322,0.0329,0.0334,0.0365,0.0388,0.0392,0.0409,0.0413,0.0428,0.0441,0.0441,0.0494,0.0473,0.0476,0.051,0.0552,0.0556,0.056,0.0579,0.0587,0.0593,0,0,0,0,0,0,0.0294,0.0326,0.0334,0.0353,0.0374,0.0392,0.0404,0.0416,0.0438,0.0444,0.045,0.0455,0.0491,0.0498,0.0474,0.055,0.0529,0.0533,0.0543,0.055,0.0555,0.057,0.047,0,0,0,0,0,0.0296,0.0318,0.0342,0.0357,0.0368,0.0388,0.04,0.0417,0.0435,0.0446,0.0461,0.0484,0.0508,0.0525,0.0544,0.0577,0.0585,0.0608,0.0613,0.0618,0.0635,0.0663,0.0672,0.0574,0.0574,0.0574,0,0,0.0289,0.0313,0.0322,0.0356,0.0372,0.0396,0.0397,0.0423,0.0452,0.0446,0.0485,0.0498,0.052,0.056,0.0579,0.0571,0.065,0.0623,0.0626,0.0641,0.0668,0.0677,0.0685,0.0577,0.0576,0.0576,0,0,0.029,0.0312,0.0331,0.0355,0.0389,0.0407,0.0418,0.0448,0.0471,0.0505,0.0514,0.0549,0.0579,0.061,0.0626,0.0677,0.0674,0.0686,0.0731,0.0757,0.0765,0.0772,0.079,0.0799,0.0694,0.0694,0.0694,0,0.0281,0.0313,0.0338,0.0365,0.0386,0.0414,0.0438,0.0468,0.0505,0.0529,0.0524,0.059,0.0609,0.0665,0.0692,0.0691,0.0698,0.0697,0.0763,0.077,0.0777,0.0794,0.0803,0.0696,0.0696,0.0696,0.0695,0,0.0295,0.0327,0.0339,0.0388,0.0413,0.0441,0.0482,0.0518,0.0545,0.0573,0.063,0.0654,0.0699,0.0714,0.0721,0.0789,0.0775,0.0758,0.074,0.0788,0.0803,0.0812,0.0698,0.0698,0.0697,0.0697,0,0,0.026,0.0335,0.0341,0.0373,0.0431,0.0454,0.0508,0.0564,0.0601,0.0646,0.0694,0.0754,0.077,0.0793,0.0807,0.0841,0.0898,0.0829,0.0829,0.0837,0.0951,0.0859,0.0859,0.0885,0.0886,0.0888,0.094,0,0.0265,0.0319,0.0358,0.0412,0.0442,0.0494,0.054,0.0598,0.0639,0.0693,0.0744,0.079,0.0799,0.0823,0.0863,0.0893,0.0924,0.0886,0.0914,0.0915,0.0818,0.0867,0.0894,0.0946,0.0948,0.095,0.0951,0,0.0267,0.0307,0.036,0.0439,0.0455,0.0497,0.0575,0.0621,0.0704,0.0735,0.0794,0.0825,0.0911,0.0891,0.0978,0.0951,0.0965,0.0975,0.0977,0.0891,0.0839,0.0892,0.0967,0.0965,0.0964,0.0963,0.0962,0,0.0236,0.0311,0.0357,0.0383,0.0471,0.0514,0.0563,0.0639,0.0681,0.0767,0.0799,0.0883,0.0926,0.0974,0.1018,0.1005,0.1085,0.1062,0.0988,0.0981,0.1036,0.1028,0.1112,0.1111,0.1111,0.1111,0.1111,0,0.0233,0.027,0.0354,0.0381,0.0437,0.0505,0.0569,0.0623,0.0702,0.0744,0.0824,0.0853,0.0947,0.1,0.1036,0.1043,0.1102,0.1012,0.0994,0.1045,0.1038,0.1042,0.1033,0.1113,0.1113,0.1112,0.1112,0,0.0198,0.0257,0.0306,0.0396,0.0428,0.0468,0.0566,0.0601,0.0686,0.0742,0.0774,0.0856,0.0908,0.0982,0.105,0.1045,0.1073,0.1051,0.1108,0.109,0.0949,0.0942,0.0989,0.0986,0.0984,0.0982,0.098,0,0.0189,0.0213,0.0294,0.0318,0.0365,0.0436,0.0476,0.0578,0.0605,0.0721,0.0729,0.0811,0.0856,0.0894,0.0962,0.1022,0.1004,0.1027,0.0992,0.0961,0.094,0.0936,0.0932,0.0976,0.0976,0.0975,0.0975,0,0.0154,0.0182,0.0212,0.0259,0.0308,0.0354,0.042,0.0444,0.055,0.0637,0.0676,0.0731,0.077,0.0825,0.0873,0.091,0.1028,0.1003,0.1007,0.0975,0.0947,0.0927,0.0926,0.0967,0.0968,0.0968,0.0969,0,0.0109,0.0106,0.0144,0.0189,0.0227,0.0253,0.0313,0.0362,0.042,0.0559,0.0558,0.0655,0.0732,0.0763,0.081,0.0842,0.0832,0.0831,0.0844,0.0854,0.0788,0.0731,0.0683,0,0,0,0,0,0.0068,0.0059,0.0075,0.0108,0.0138,0.0167,0.0254,0.0316,0.0429,0.0434,0.0505,0.0543,0.0617,0.0658,0.0666,0.0741,0.0827,0.0748,0.0829,0.0922,0.0932,0.0867,0,0,0,0,0,0,0.0025,0.0034,0.0045,0.0033,0.0031,0.0062,0.0112,0.0197,0.0214,0.0337,0.037,0.0483,0.0547,0.058,0.0634,0.0654,0.0695,0.0816,0.0815,0.0917,0.0926,0.0933,0.087,0,0,0,0,0]},{"header":{"parameterUnit":"m.s-1","parameterCategory":2,"la1":30.2991,"la2":30.254,"lo1":-89.0895,"lo2":-89.0444,"dy":0.0017,"dx":0.0017,"nx":28,"ny":28,"refTime":"2024-03-25T03:00:00:Z","depth":"4","parameterNumber":3,"parameterNumberName":"V-component_of_CURRENTS"},"data":[0,0,0,0,0,0,0,0,0,0,0,0,0,0,0,0,0,0,0,0,0,0,0,0,0,0,0,0,0,0,0,0,0,0,0,0,0,0,0,0,0,0,0,0,0,0,0,0,0,0,0,0,0,0,0,0,0,0,0.0686,0.0686,0,0.0697,0.0697,0.0697,0.0704,0.0704,0.0704,0.0704,0.0698,0.0698,0.0697,0,0,0,0,0,0,0,0,0,0,0,0,0,0.0651,0.0651,0.0686,0.0686,0.0686,0.0697,0.0697,0.0697,0.0704,0.0704,0.0704,0.0704,0.0698,0.0698,0.0697,0,0,0,0,0,0,0,0,0,0,0,0,0,0.0664,0.0651,0.0686,0.0691,0.0692,0.0697,0.0697,0.0697,0.0704,0.0704,0.0704,0.0704,0.0698,0.0698,0.0697,0.0692,0,0,0.0696,0.0696,0,0,0,0,0,0,0,0,0.0663,0.0665,0.069,0.0691,0.0692,0.07,0.0682,0.0694,0.0704,0.0699,0.0704,0.0705,0.0697,0.0697,0.0698,0.0692,0.0691,0.0696,0.0696,0.0696,0.0696,0,0,0,0,0,0,0,0.0662,0.0664,0.0689,0.069,0.0691,0.0686,0.0688,0.0684,0.0696,0.0699,0.07,0.0702,0.0697,0.0698,0.0698,0.0691,0.0696,0.0696,0.0696,0.0695,0.0678,0.0678,0,0,0,0,0,0,0.0663,0.0664,0.0689,0.069,0.0678,0.0687,0.0689,0.0696,0.0697,0.0697,0.0702,0.0702,0.0699,0.0698,0.0698,0.0701,0.0696,0.0695,0.0695,0.0678,0.0678,0.0678,0,0,0,0,0,0,0.0662,0.0665,0.0689,0.0677,0.068,0.0688,0.0695,0.0697,0.0707,0.0699,0.0699,0.0712,0.0699,0.0698,0.0701,0.07,0.0695,0.0695,0.0679,0.0678,0.0678,0.0701,0,0,0,0,0,0,0.0661,0.0665,0.0673,0.0677,0.068,0.0696,0.0695,0.0697,0.0708,0.0708,0.0707,0.0707,0.0699,0.0702,0.0701,0.0699,0.0694,0.0679,0.0679,0.0678,0.07,0.0701,0.0702,0,0,0,0,0,0.066,0.0666,0.0674,0.0677,0.0691,0.0696,0.0697,0.0702,0.0708,0.0712,0.0713,0.0707,0.0698,0.0702,0.0701,0.0699,0.0679,0.0679,0.0678,0.07,0.0701,0.0702,0,0,0,0,0,0,0.065,0.0668,0.0676,0.0687,0.0695,0.0698,0.0704,0.0709,0.0714,0.0718,0.0711,0.071,0.0709,0.0701,0.0705,0.0691,0.0685,0.0684,0.0702,0.0703,0.0703,0.0712,0.0694,0,0,0,0,0,0.0654,0.0666,0.0678,0.0687,0.0694,0.0702,0.0707,0.0712,0.0716,0.0719,0.0717,0.0711,0.0704,0.0703,0.0695,0.0693,0.0681,0.0688,0.0689,0.0689,0.0694,0.0666,0.0665,0.0676,0.0676,0.0676,0,0,0.0651,0.0663,0.0669,0.0686,0.0695,0.0701,0.0706,0.0716,0.0719,0.0716,0.072,0.0717,0.0704,0.07,0.0698,0.0695,0.0681,0.0689,0.069,0.0694,0.0666,0.0665,0.0664,0.0676,0.0676,0.0676,0,0,0.0648,0.0666,0.0675,0.0685,0.0702,0.0705,0.0711,0.0721,0.0726,0.0732,0.0726,0.0725,0.0718,0.0707,0.07,0.0701,0.0687,0.0696,0.0709,0.0682,0.0681,0.068,0.0672,0.067,0.0696,0.0697,0.0697,0,0.0644,0.0661,0.0677,0.0687,0.0695,0.0709,0.0716,0.072,0.0728,0.0733,0.0735,0.0726,0.0719,0.0708,0.0711,0.0703,0.0693,0.0709,0.0684,0.0682,0.0681,0.0673,0.067,0.0698,0.0697,0.0697,0.0697,0,0.0645,0.0663,0.0669,0.0688,0.0696,0.0706,0.0716,0.0727,0.0737,0.0739,0.0741,0.0732,0.073,0.0721,0.0721,0.0706,0.0705,0.0689,0.0683,0.0681,0.0673,0.067,0.0699,0.0699,0.0698,0.0698,0,0,0.0628,0.0664,0.0667,0.0685,0.0701,0.071,0.0718,0.073,0.0741,0.0744,0.075,0.0741,0.0747,0.074,0.0732,0.0712,0.0699,0.0703,0.0701,0.0701,0.0653,0.066,0.0657,0.0677,0.0677,0.0676,0.0655,0,0.0627,0.0649,0.0665,0.0685,0.0699,0.0719,0.0726,0.0739,0.0745,0.0754,0.0748,0.0753,0.0748,0.0757,0.0735,0.0712,0.0691,0.0707,0.0651,0.065,0.066,0.0653,0.0674,0.0653,0.0652,0.0652,0.0651,0,0.0625,0.0643,0.0666,0.0701,0.071,0.0727,0.0754,0.0764,0.0773,0.0777,0.0779,0.0776,0.077,0.0757,0.0715,0.0728,0.0696,0.0669,0.0667,0.0664,0.0651,0.0652,0.0646,0.0646,0.0646,0.0647,0.0647,0,0.0613,0.0646,0.067,0.0681,0.0716,0.0743,0.0766,0.078,0.0803,0.0803,0.082,0.0793,0.0802,0.0752,0.0728,0.0717,0.0674,0.0646,0.0617,0.0618,0.061,0.0611,0.0598,0.0598,0.0598,0.0599,0.0599,0,0.0605,0.0628,0.0678,0.0693,0.0736,0.0757,0.0802,0.0813,0.084,0.0877,0.0848,0.0858,0.0801,0.078,0.0732,0.0684,0.0678,0.0623,0.061,0.0621,0.0623,0.0608,0.061,0.0598,0.0598,0.0598,0.0598,0,0.0591,0.0622,0.066,0.0711,0.0737,0.0773,0.0851,0.0882,0.0898,0.0946,0.0957,0.0918,0.0893,0.0842,0.0764,0.0704,0.0645,0.0624,0.0666,0.0654,0.0603,0.0606,0.0576,0.0576,0.0576,0.0576,0.0576,0,0.0583,0.0602,0.0676,0.0717,0.0754,0.0819,0.0871,0.0911,0.094,0.0988,0.1002,0.0995,0.0973,0.0867,0.0789,0.0698,0.0673,0.0625,0.0587,0.061,0.0599,0.0602,0.0605,0.0576,0.0576,0.0576,0.0576,0,0.0567,0.0606,0.064,0.073,0.0802,0.0874,0.0944,0.0971,0.1029,0.1046,0.1051,0.1011,0.0974,0.0872,0.0814,0.0737,0.0644,0.0624,0.0623,0.0586,0.0609,0.0599,0.0602,0.0576,0.0576,0.0576,0.0576,0,0.0562,0.059,0.0659,0.0746,0.0828,0.0916,0.0952,0.1004,0.1042,0.1085,0.1083,0.1053,0.1021,0.0894,0.0837,0.0773,0.0731,0.0663,0.0659,0.0658,0.0682,0.0723,0.0716,0,0,0,0,0,0.0555,0.0608,0.0677,0.0784,0.0867,0.0938,0.0996,0.1025,0.1077,0.109,0.1093,0.1068,0.098,0.091,0.085,0.0821,0.0715,0.0741,0.0634,0.0576,0.0576,0.0591,0,0,0,0,0,0,0.0553,0.0618,0.0674,0.0808,0.0894,0.1003,0.105,0.109,0.107,0.1099,0.104,0.1034,0.0932,0.1046,0.0853,0.0831,0.0743,0.0704,0.0701,0.0576,0.0576,0.0576,0.0591,0,0,0,0,0]}]]